Location: Unnamed
(47.6264°N, 122.3366°W)
Time: 06:25:04
(UTC-07:00)

X-37B - Pass Details

Date: 22 June 2021
Orbit: 383 x 392 km, 45.0° (Epoch: 01 July)

Event Time Altitude Azimuth Distance (km) Brightness Sun altitude
Exits shadow 03:57:26 13° 242° (WSW) 1,241 2.6 -9.7°
Maximum altitude 03:59:00 17° 208° (SSW) 1,046 2.1 -9.6°
Drops below altitude 10° 04:01:11 10° 164° (SSE) 1,402 3.1 -9.4°
Sets 04:03:41 0° 143° (SE) 2,254 4.3 -9.1°
